When you browse on this site, cookies collect data to enhance your experience and personalize the content and advertising you see.
Visit our Privacy Policy to learn more. By continuing to use the site, you agree to this use of cookies and data.
  • In Hungary
  • List of Countries
  • For 7 days
  • Water Temperature
  • Satellite Maps
  • Weather Map
  • News
  • Weather Widgets
  • user-avatar
    Login

    Hourly Weather Aylesbury

    Today, 22 February, Friday

    Time Temperature Precipitation Wind Pressure Humidity
    00:00 +6°C° 0 mm 2 mps 765 mmHg 92%
    01:00 +6°C° 0 mm 2 mps 765 mmHg 91%
    02:00 +6°C° 0 mm 2 mps 765 mmHg 90%
    03:00 +7°C° 0 mm 1 mps 765 mmHg 89%
    04:00 +6°C° 0 mm 1 mps 766 mmHg 89%
    05:00 +6°C° 0 mm 1 mps 766 mmHg 89%
    06:00 +6°C° 0 mm 1 mps 767 mmHg 90%
    07:00 +7°C° 0 mm 1 mps 767 mmHg 87%
    08:00 +8°C° 0 mm 1 mps 767 mmHg 85%
    09:00 +8°C° 0 mm 1 mps 767 mmHg 83%
    10:00 +9°C° 0 mm 2 mps 767 mmHg 77%
    11:00 +12°C° 0 mm 2 mps 768 mmHg 72%
    12:00 +12°C° 0 mm 3 mps 768 mmHg 67%
    13:00 +12°C° 0 mm 3 mps 768 mmHg 67%
    14:00 +13°C° 0 mm 3 mps 768 mmHg 67%
    15:00 +13°C° 0 mm 3 mps 767 mmHg 67%
    16:00 +12°C° 0 mm 3 mps 767 mmHg 72%
    17:00 +10°C° 0 mm 3 mps 767 mmHg 78%
    18:00 +9°C° 0 mm 3 mps 767 mmHg 84%
    19:00 +8°C° 0 mm 3 mps 767 mmHg 84%
    20:00 +8°C° 0 mm 3 mps 767 mmHg 85%
    21:00 +7°C° 0 mm 3 mps 767 mmHg 86%
    22:00 +7°C° 0 mm 3 mps 767 mmHg 86%
    23:00 +7°C° 0 mm 3 mps 767 mmHg 86%

    Tomorrow, 23 February, Saturday

    Time Temperature Precipitation Wind Pressure Humidity
    00:00 +7°C° 0 mm 3 mps 767 mmHg 86%
    01:00 +7°C° 0 mm 3 mps 767 mmHg 89%
    02:00 +6°C° 0 mm 4 mps 766 mmHg 91%
    03:00 +6°C° 0 mm 4 mps 766 mmHg 94%
    04:00 +7°C° 0 mm 3 mps 766 mmHg 95%
    05:00 +7°C° 0 mm 3 mps 766 mmHg 96%
    06:00 +7°C° 0 mm 3 mps 766 mmHg 97%
    07:00 +8°C° 0 mm 3 mps 766 mmHg 95%
    08:00 +8°C° 0 mm 4 mps 766 mmHg 92%
    09:00 +8°C° 0 mm 4 mps 766 mmHg 90%
    10:00 +11°C° 0 mm 4 mps 766 mmHg 84%
    11:00 +12°C° 0 mm 4 mps 766 mmHg 78%
    12:00 +13°C° 0 mm 5 mps 766 mmHg 72%
    13:00 +13°C° 0 mm 4 mps 766 mmHg 71%
    14:00 +14°C° 0 mm 4 mps 766 mmHg 69%
    15:00 +14°C° 0 mm 4 mps 766 mmHg 67%
    16:00 +12°C° 0 mm 3 mps 766 mmHg 72%
    17:00 +11°C° 0 mm 3 mps 766 mmHg 76%
    18:00 +9°C° 0 mm 2 mps 766 mmHg 81%
    19:00 +8°C° 0 mm 2 mps 766 mmHg 83%
    20:00 +8°C° 0 mm 2 mps 767 mmHg 85%
    21:00 +8°C° 0 mm 1 mps 767 mmHg 87%
    22:00 +7°C° 0 mm 2 mps 767 mmHg 87%
    23:00 +7°C° 0 mm 2 mps 767 mmHg 87%

    Day after tomorrow, 24 February, Sunday

    Time Temperature Precipitation Wind Pressure Humidity
    00:00 +6°C° 0 mm 2 mps 767 mmHg 87%
    01:00 +6°C° 0 mm 2 mps 767 mmHg 85%
    02:00 +6°C° 0 mm 2 mps 767 mmHg 83%
    03:00 +6°C° 0 mm 2 mps 767 mmHg 82%
    04:00 +5°C° 0 mm 2 mps 767 mmHg 81%
    05:00 +5°C° 0 mm 2 mps 767 mmHg 80%
    06:00 +4°C° 0 mm 2 mps 767 mmHg 80%
    07:00 +5°C° 0 mm 2 mps 768 mmHg 77%
    08:00 +6°C° 0 mm 2 mps 768 mmHg 74%
    09:00 +6°C° 0 mm 2 mps 768 mmHg 71%
    10:00 +8°C° 0 mm 2 mps 768 mmHg 65%
    11:00 +9°C° 0 mm 2 mps 769 mmHg 59%
    12:00 +12°C° 0 mm 2 mps 769 mmHg 52%
    13:00 +12°C° 0 mm 2 mps 768 mmHg 52%
    14:00 +12°C° 0 mm 3 mps 768 mmHg 52%
    15:00 +12°C° 0 mm 3 mps 768 mmHg 52%
    16:00 +10°C° 0 mm 2 mps 768 mmHg 56%
    17:00 +9°C° 0 mm 2 mps 768 mmHg 60%
    18:00 +8°C° 0 mm 1 mps 769 mmHg 64%
    19:00 +7°C° 0 mm 2 mps 769 mmHg 66%
    20:00 +6°C° 0 mm 2 mps 769 mmHg 67%
    21:00 +5°C° 0 mm 2 mps 769 mmHg 69%
    22:00 +5°C° 0 mm 2 mps 769 mmHg 68%
    23:00 +6°C° 0 mm 1 mps 770 mmHg 68%

    25 February, Monday

    Time Temperature Precipitation Wind Pressure Humidity
    00:00 +5°C° 0 mm 1 mps 770 mmHg 68%
    01:00 +5°C° 0 mm 1 mps 770 mmHg 69%
    02:00 +5°C° 0 mm 1 mps 770 mmHg 70%
    03:00 +4°C° 0 mm 2 mps 769 mmHg 71%
    04:00 +4°C° 0 mm 2 mps 769 mmHg 72%
    05:00 +4°C° 0 mm 2 mps 769 mmHg 73%
    06:00 +4°C° 0 mm 2 mps 769 mmHg 73%
    07:00 +5°C° 0 mm 2 mps 769 mmHg 72%
    08:00 +6°C° 0 mm 2 mps 770 mmHg 71%
    09:00 +8°C° 0 mm 1 mps 770 mmHg 69%
    10:00 +9°C° 0 mm 1 mps 770 mmHg 64%
    11:00 +10°C° 0 mm 2 mps 770 mmHg 60%
    12:00 +12°C° 0 mm 2 mps 770 mmHg 55%
    13:00 +12°C° 0 mm 2 mps 770 mmHg 56%
    14:00 +13°C° 0 mm 2 mps 770 mmHg 57%
    15:00 +13°C° 0 mm 2 mps 769 mmHg 57%
    16:00 +12°C° 0 mm 2 mps 769 mmHg 61%
    17:00 +9°C° 0 mm 2 mps 769 mmHg 65%
    18:00 +8°C° 0 mm 2 mps 769 mmHg 69%
    19:00 +7°C° 0 mm 2 mps 769 mmHg 69%
    20:00 +7°C° 0 mm 2 mps 769 mmHg 70%
    21:00 +6°C° 0 mm 2 mps 769 mmHg 71%
    22:00 +6°C° 0 mm 2 mps 769 mmHg 70%
    23:00 +6°C° 0 mm 2 mps 769 mmHg 70%

    26 February, Tuesday

    Time Temperature Precipitation Wind Pressure Humidity
    00:00 +6°C° 0 mm 2 mps 769 mmHg 69%
    01:00 +5°C° 0 mm 2 mps 768 mmHg 71%
    02:00 +5°C° 0 mm 2 mps 768 mmHg 72%
    03:00 +6°C° 0 mm 1 mps 768 mmHg 74%
    04:00 +5°C° 0 mm 2 mps 768 mmHg 75%
    05:00 +5°C° 0 mm 2 mps 767 mmHg 77%
    06:00 +5°C° 0 mm 2 mps 767 mmHg 79%
    07:00 +6°C° 0 mm 2 mps 767 mmHg 78%
    08:00 +7°C° 0 mm 3 mps 767 mmHg 76%
    09:00 +8°C° 0 mm 3 mps 767 mmHg 75%
    10:00 +10°C° 0 mm 3 mps 767 mmHg 71%
    11:00 +12°C° 0 mm 4 mps 767 mmHg 66%
    12:00 +13°C° 0 mm 4 mps 767 mmHg 62%
    13:00 +14°C° 0 mm 4 mps 766 mmHg 61%
    14:00 +14°C° 0 mm 5 mps 766 mmHg 61%
    15:00 +14°C° 0 mm 5 mps 765 mmHg 60%
    16:00 +12°C° 0 mm 4 mps 765 mmHg 66%
    17:00 +10°C° 0 mm 3 mps 765 mmHg 73%
    18:00 +9°C° 0 mm 3 mps 765 mmHg 79%
    19:00 +8°C° 0 mm 3 mps 765 mmHg 82%
    20:00 +8°C° 0 mm 2 mps 765 mmHg 86%
    21:00 +7°C° 0 mm 2 mps 765 mmHg 89%
    22:00 +7°C° 0 mm 2 mps 765 mmHg 90%
    23:00 +7°C° 0 mm 2 mps 765 mmHg 91%

    27 February, Wednesday

    Time Temperature Precipitation Wind Pressure Humidity
    00:00 +6°C° 0 mm 2 mps 764 mmHg 93%
    01:00 +6°C° 0 mm 2 mps 764 mmHg 94%
    02:00 +6°C° 0 mm 2 mps 764 mmHg 94%
    03:00 +6°C° 0 mm 2 mps 764 mmHg 95%
    04:00 +6°C° 0 mm 2 mps 764 mmHg 95%
    05:00 +7°C° 0 mm 1 mps 764 mmHg 96%
    06:00 +7°C° 0 mm 1 mps 763 mmHg 96%
    07:00 +8°C° 0 mm 1 mps 763 mmHg 94%
    08:00 +9°C° 0 mm 1 mps 763 mmHg 92%
    09:00 +10°C° 0 mm 1 mps 763 mmHg 91%
    10:00 +12°C° 0 mm 2 mps 763 mmHg 84%
    11:00 +14°C° 0 mm 2 mps 763 mmHg 77%
    12:00 +15°C° 0 mm 2 mps 763 mmHg 70%
    13:00 +16°C° 0 mm 2 mps 762 mmHg 68%
    14:00 +16°C° 0 mm 2 mps 762 mmHg 66%
    15:00 +17°C° 0 mm 2 mps 761 mmHg 64%
    16:00 +15°C° 0 mm 2 mps 761 mmHg 70%
    17:00 +13°C° 0 mm 2 mps 761 mmHg 76%
    18:00 +12°C° 0 mm 2 mps 761 mmHg 82%
    19:00 +10°C° 0 mm 2 mps 761 mmHg 84%
    20:00 +9°C° 0 mm 2 mps 761 mmHg 85%
    21:00 +8°C° 0 mm 2 mps 761 mmHg 86%
    22:00 +8°C° 0 mm 2 mps 760 mmHg 86%
    23:00 +7°C° 0 mm 2 mps 760 mmHg 86%
    Show more